Location: Hac?musa Deresi
(39.1694°N, 32.2508°E)
Time: 10:26:47
(UTC+00:00)

Cosmos 2297 - Pass Details

Date: 22 April 2026
Orbit: 833 x 859 km, 71.0° (Epoch: 20 May)

Event Time Altitude Azimuth Distance (km) Brightness Sun altitude
Rises 18:19:27 0° 343° (NNW) 3,440 7.7 -19.0°
Reaches altitude 10° 18:22:05 10° 351° (N) 2,500 6.8 -19.4°
Maximum altitude 18:27:29 41° 61° (ENE) 1,220 4.3 -20.3°
Enters shadow 18:28:58 35° 96° (E) 1,356 4.3 -20.5°
